www.pogodaiklimat.ru

Погода и климат >> Архив погоды >> Норвегия >> Бардуфосс


ПОГОДА в Бардуфоссе

  • Прогноз погоды в Бардуфоссе
  • Монитор погоды в Бардуфоссе

АРХИВ ПОГОДЫ в Бардуфоссе

Время (UTC), дата Ветер
(напр.,м/с)
 
Видим.   Явления Облачность Т
(С)
Тd
(С)
f
(%)
Тe
(С)
Тes
(С)
Комфортность P
(гПа)
Po
(гПа)
Тmin
(С)
Tmax
(С)
R
(мм)
R24
(мм)
S
(см)
01 15.08 штиль 0
{3}
н/о н/о +11.5 +10.8 95 +11 +11 1003.6 994.4
02 15.08 С 2
{2}
н/о н/о +11.1 +10.6 97 +10 +10 1003.7 994.5
03 15.08
{3}
н/о н/о +11.1 +10.6 97 1003.7 994.5
04 15.08 штиль 0
{1}
2500 м дождь {морось} 10/10 <50 м
[St]
+11.2 +10.8 97 +10 +10 1003.7 994.5
05 15.08 С 1
{1}
4000 м дымка {дождь} 10/10 <50 м
[St]
+11.3 +10.9 97 +11 +11 1003.8 994.6
06 15.08 С 1
{3}
65 км в посл. час переохл. осадки (гололёд) {морось} 10/10 <50 м
[St]
+11.6 +11.0 96 +11 +11 1004.0 994.8 +11.0 +15.3
07 15.08 штиль 0
{1}
65 км в посл. час дождь 10/10 <50 м
[St]
+12.0 +11.3 95 +11 +11 1004.1 994.9
08 15.08 С 1
{1}
65 км осадки на расстоянии 10/10 <50 м
[St]
+12.1 +11.3 95 +12 +12 1004.1 994.9
09 15.08 С 1
{2}
65 км осадки на расстоянии 10/10 <50 м
[St]
+12.6 +11.5 93 +13 +13 1004.2 995.1
10 15.08 СВ 1
{2}
70 км 10/9 <50 м
[St Ac As]
+13.3 +11.8 91 +13 +14 1004.3 995.2
11 15.08 С 2
{5}
70 км {дождь} 10/9 <50 м
[St Ac As]
+13.7 +11.2 85 +13 +13 1004.4 995.3
12 15.08 С 3
{5}
70 км осадки на расстоянии 10/9 <50 м
[St Ac As]
+12.8 +11.2 90 +11 +12 1004.8 995.6
13 15.08 СЗ 2
{4}
70 км 10/9 <50 м
[St Ac As]
+12.8 +10.5 86 +12 +12 1005.2 996.0
14 15.08
{3}
55 км слаб. дождь 10/9 100 м
[St Ac As]
+12.1 +10.4 89 1005.6 996.4
15 15.08 С 1
{3}
65 км осадки на расстоянии 10/9 100 м
[St Ac As]
+12.1 +10.2 88 +12 +12 1005.9 996.7
16 15.08 С 2
{4}
55 км слаб. дождь 10/9 100 м
[St Ac As]
+11.4 +10.3 93 +10 +10 1006.4 997.2
17 15.08 С 1
{3}
50 км слаб. дождь 10/9 100 м
[St Ac As]
+11.1 +10.3 95 +11 +11 1006.7 997.5
18 15.08 штиль 0
{4}
70 км в посл. час дождь 10/9 100 м
[St Ac As]
+11.1 +10.2 94 +10 +10 1006.8 997.6 +11.0 +14.2
19 15.08 С 1
{1}
70 км 10/9 100 м
[St Ac As]
+10.8 +9.7 93 +10 +10 1006.9 997.7
20 15.08 С 1
{3}
70 км 10/9 100 м
[St Ac As]
+10.5 +9.2 92 +10 +10 1007.2 997.9
21 15.08 ЮВ 1
{3}
70 км 10/9 50 м
[St Ac As]
+10.3 +9.3 94 +10 +10 1007.2 997.9
22 15.08 З 1
{1}
н/о н/о +10.4 +9.2 92 +10 +10 1007.4 998.2
23 15.08 Ю 1
{2}
н/о н/о +10.1 +9.6 97 +9 +9 1007.5 998.3
00 16.08 Ю 1
{3}
н/о н/о +10.1 +9.5 96 +10 +10 1007.4 998.2
01 16.08 СВ 1
{2}
н/о н/о +10.1 +9.6 97 +9 +9 1007.5 998.2
02 16.08 В 1
{1}
н/о н/о +10.0 +9.6 97 +9 +9 1007.4 998.1
03 16.08 штиль 0
{1}
н/о н/о +10.0 +9.6 97 +9 +9 1007.3 998.0
04 16.08 штиль 0
{2}
20 км туман на расстоянии 10/10 <50 м
[Sc]
+10.1 +9.6 97 +9 +9 1007.3 998.0
05 16.08 штиль 0
{1}
30 км 10/10 <50 м
[Sc]
+10.3 +9.6 95 +9 +9 1007.2 998.0
06 16.08 СВ 2
{2}
30 км {дождь} 10/10 <50 м
[Sc]
+10.5 +9.5 94 +9 +9 1007.0 997.8 +9.9 +11.1
07 16.08 С 1
{2}
60 км 10/9 <50 м
[Sc Ac As]
+10.9 +9.6 92 +11 +11 1006.7 997.4
08 16.08 СЗ 1
{1}
60 км 10/9 100 м
[Sc Ac As]
+11.8 +9.7 87 +12 +12 1006.3 997.1
09 16.08 ЮВ 1
{1}
60 км 10/9 100 м
[Sc Ac As]
+12.8 +10.1 84 +13 +13 1005.7 996.6
10 16.08 С 1
{2}
65 км 9/8 200 м
[Cu Sc Ac As]
+13.4 +9.5 77 +14 +15 1005.5 996.4
11 16.08 С 1
{3}
>70 км 9/6 300 м
[Cu Sc Ac As]
+14.0 +10.2 78 +14 +16 1005.0 995.9
12 16.08 С 2
{3}
>70 км 9/6 300 м
[Cu Sc Ac As]
+14.4 +10.4 77 +14 +15 1004.6 995.5
13 16.08 С 3
{4}
>70 км 8/5 300 м
[Cu Sc Ac As Cs]
+14.9 +9.6 71 +14 +16 1004.5 995.4
14 16.08 С 4
{5}
>70 км 6/5 300 м
[Cu Sc Ac As Cs]
+15.8 +9.5 66 +15 +16 1004.1 995.0
15 16.08 С 3
{6}
>70 км 5/4 300 м
[Cu Sc Ac As Cs]
+16.3 +10.4 68 +16 +17 1003.8 994.8
16 16.08 С 4
{6}
>70 км 6/5 600 м
[Cu med, cong Ac As Cs]
+15.5 +10.4 72 +15 +15 1003.7 994.7
17 16.08 С 3
{6}
>70 км 9/5 600 м
[Cu med, cong Ac As Cs]
+14.6 +10.2 75 +14 +14 1003.8 994.7
18 16.08 С 2
{6}
>70 км 6/5 600 м
[Cu Sc Ac As Cs]
+13.7 +9.9 78 +13 +13 1004.0 994.9 +10.4 +16.9
19 16.08 С 2
{4}
60 км осадки на расстоянии 9/8 600 м
[Cu Sc Ac As Cs]
+13.1 +10.2 83 +12 +12 1004.3 995.2
20 16.08 В 2
{3}
40 км слаб. ливневой дождь, в посл. час гроза 9/8 600 м
[Cu Sc Ac As]
+12.0 +11.0 94 +11 +11 1004.8 995.7
21 16.08 ЮЗ 1
{3}
65 км осадки на расстоянии {ливн. осадки} 9/8 50 м
[Cu Sc Ac trans]
+10.9 +10.3 96 +10 +10 1004.8 995.6
22 16.08 В 2
{2}
н/о н/о +10.6 +10.2 97 +9 +9 1005.1 995.8
23 16.08 штиль 0
{1}
н/о н/о +10.2 +9.8 97 +9 +9 1005.1 995.8
00 17.08 ЮЗ 2
{4}
н/о н/о +10.2 +9.8 97 +9 +9 1005.3 996.0
01 17.08 ЮВ 2
{3}
н/о н/о +10.2 +9.7 97 +9 +9 1005.4 996.2
02 17.08 ЮВ 1
{4}
н/о н/о +9.5 +8.8 95 +9 +9 1005.5 996.2
03 17.08 С 2
{3}
н/о н/о +8.1 +7.7 97 +6 +6 1005.7 996.4
04 17.08 ЮВ 1
{3}
н/о н/о +9.0 +8.4 96 +8 +8 1005.8 996.5
05 17.08 В 1
{5}
3000 м туман местами 8/6 <50 м
[St Ac As Ci fib]
+9.2 +8.5 95 +8 +9 1005.9 996.6
06 17.08 В 1
{5}
65 км туман на расстоянии 4/3 <50 м
[St Ac trans Ci fib]
+11.6 +9.2 85 +11 +13 1005.8 996.6 +7.7 +13.8
07 17.08 В 2
{3}
70 км туман на расстоянии 3/1 <50 м
[St Ac trans Ci fib]
+12.6 +9.8 83 +12 +15 1005.5 996.4
08 17.08 В 2
{4}
>70 км 3/1 600 м
[Cu hum Ac trans Cs]
+14.1 +9.9 76 +14 +17 1005.1 996.0
09 17.08 В 2
{4}
>70 км 4/1 600 м
[Cu hum Cs]
+16.3 +9.2 63 +16 +21 1004.9 995.9
10 17.08 В 2
{4}
>70 км 4/1 1000 м
[Cu hum Ac cast Cs]
+17.6 +7.0 50 +18 +23 1004.2 995.2
11 17.08 В 4
{6}
>70 км 5/1 1000 м
[Cu hum Ac lent Cc]
+18.4 +6.4 45 +18 +22 1003.8 994.8
12 17.08 В 3
{6}
>70 км 9/1 1000 м
[Cu hum Ac lent Cc]
+18.4 +6.2 45 +19 +21 1003.4 994.5
13 17.08 В 1
{4}
>70 км 9/1 1500 м
[Cu Sc Ac As]
+19.1 +6.9 45 +21 +23 комфорт 1002.8 993.9
14 17.08 ЮВ 1
{3}
>70 км 9/1 1500 м
[Cu Sc Ac lent]
+19.3 +5.6 41 +21 +22 комфорт 1002.4 993.4
15 17.08
{3}
н/о н/о +18.5 +8.1 51 1002.0 993.1
16 17.08 ЮВ 1
{4}
н/о н/о +17.6 +9.7 60 +19 +19 1001.6 992.7
17 17.08 ЮВ 2
{3}
н/о н/о +17.3 +9.8 61 +18 +18 1001.3 992.4
18 17.08 ЮВ 1
{4}
н/о н/о +16.6 +10.4 67 +17 +17 1001.1 992.1 +10.7 +19.8
19 17.08 ЮВ 1
{2}
н/о н/о +14.9 +11.6 81 +15 +15 1000.9 991.8
20 17.08 В 3
{7}
н/о н/о +16.3 +10.6 69 +16 +16 1000.4 991.4
21 17.08 В 4
{6}
н/о н/о +16.4 +10.9 70 +16 +16 999.7 990.8
22 17.08 ЮЗ 3
{5}
н/о н/о +14.0 +11.9 87 +13 +13 999.5 990.5
23 17.08 З 2
{3}
н/о н/о +13.3 +12.3 94 +12 +12 999.6 990.5
00 18.08 З 3
{7}
н/о н/о +13.6 +12.8 95 +12 +12 999.4 990.3
01 18.08 В 1
{4}
н/о н/о +13.3 +12.5 95 +13 +13 999.0 989.9
02 18.08 ЮЗ 1
{2}
н/о н/о +12.5 +12.1 97 +12 +12 998.7 989.6
03 18.08 ЮВ 1
{3}
н/о н/о +12.3 +12.0 98 +12 +12 998.4 989.3
04 18.08 ЮЗ 1
{2}
н/о н/о +12.4 +12.1 98 +12 +12 998.3 989.2
05 18.08 СВ 1
{2}
н/о н/о +13.1 +12.7 97 +13 +13 998.3 989.3
06 18.08 Ю 1
{4}
н/о н/о +13.9 +13.1 95 +14 +14 998.4 989.3 +12.2 +16.7
07 18.08 В 1
{2}
н/о н/о +15.2 +13.6 90 +16 +16 998.8 989.7
08 18.08 З 1
{2}
>70 км 9/8 600 м
[Sc Ac lent]
+16.6 +13.5 82 +17 +18 999.0 990.1
09 18.08 В 1
{2}
>70 км 9/9 600 м
[Cu Sc Ac lent]
+17.1 +12.2 73 +18 +19 999.5 990.5
10 18.08 В 3
{5}
>70 км 8/6 1000 м
[Cu Sc Ac lent Ci fib]
+18.1 +11.5 65 +18 +20 999.6 990.7
11 18.08 В 3
{5}
>70 км 9/4 1000 м
[Cu Sc Ac lent Ci sp]
+20.5 +11.3 56 +23 +25 комфорт 999.5 990.7
12 18.08 З 2
{5}
>70 км 9/8 1000 м
[Cu Sc Ac lent Ci sp]
+20.3 +10.1 52 +22 +23 комфорт 999.3 990.5
13 18.08 С 2
{3}
70 км осадки на расстоянии 9/6 1000 м
[Cu Sc Ac As]
+20.3 +11.9 58 +23 +24 комфорт 999.6 990.7
14 18.08 С 2
{5}
>70 км 9/5 1000 м
[Cu Sc Ac lent Cc]
+19.6 +11.5 59 +21 +23 комфорт 999.7 990.8
15 18.08 В 2
{5}
>70 км 9/5 1000 м
[Cu Sc Ac lent Cc]
+20.4 +12.0 59 +23 +24 комфорт 999.8 991.0
16 18.08 В 4
{7}
>70 км 9/5 1000 м
[Cu Sc Ac lent Cc]
+18.7 +11.0 61 +19 +20 999.8 990.9
17 18.08 В 5
{8}
70 км слаб. ливневой дождь 9/8 1000 м
[Cu Sc Ac lent]
+18.4 +11.2 63 +18 +18 999.9 991.0
18 18.08 В 4
{8}
>70 км в посл. час ливневой дождь 9/8 600 м
[Cu Sc Ac As]
+18.1 +11.1 64 +18 +18 1000.0 991.1 +13.9 +21.4
19 18.08 З 2
{5}
>70 км 9/6 600 м
[Cu Sc Ac As Ci sp]
+15.9 +12.1 78 +16 +16 1000.5 991.5
20 18.08 З 3
{5}
>70 км 9/8 600 м
[Cu Sc Ac As]
+16.1 +11.8 76 +16 +16 1000.7 991.7
21 18.08 З 3
{7}
>70 км 9/8 600 м
[Cu Sc Ac As]
+14.9 +12.5 86 +14 +14 1001.0 992.0
22 18.08 З 4
{6}
н/о н/о +14.5 +12.6 88 +13 +13 1001.2 992.2
23 18.08 З 3
{6}
н/о н/о +14.3 +12.4 88 +13 +13 1001.8 992.7
00 19.08 З 2
{7}
н/о н/о +13.8 +12.3 91 +13 +13 1002.2 993.1
01 19.08 З 2
{4}
н/о н/о +13.6 +12.2 91 +13 +13 1002.0 992.9
02 19.08 З 2
{4}
н/о н/о +13.0 +11.8 92 +12 +12 1002.1 993.0
03 19.08 Ю 1
{3}
н/о н/о +11.6 +10.8 95 +11 +11 1001.9 992.7
04 19.08 штиль 0
{1}
>70 км 6/1 <50 м
[St Ac trans Cs]
+12.3 +11.2 93 +12 +12 1001.6 992.5
05 19.08 штиль 0
{2}
70 км 9/3 <50 м
[St Ac lent Cs]
+12.7 +11.8 94 +12 +13 1001.2 992.1
06 19.08 штиль 0
{4}
70 км 9/3 <50 м
[St Ac lent Cs]
+12.8 +11.9 94 +12 +13 1000.9 991.7 +11.4 +18.2
07 19.08 штиль 0
{2}
70 км осадки на расстоянии 9/3 100 м
[Cu Sc Ac As Cs]
+13.2 +12.1 93 +13 +14 1000.2 991.1
08 19.08 СВ 1
{1}
50 км слаб. дождь 9/5 50 м
[Sc As op]
+14.1 +12.3 89 +14 +15 999.6 990.5
09 19.08 СВ 1
{2}
60 км в посл. час дождь 10/4 100 м
[Sc Ac As]
+14.4 +12.7 90 +15 +16 998.8 989.8
10 19.08 СВ 2
{5}
45 км слаб. дождь 10/6 200 м
[Sc Ac As]
+15.0 +12.7 86 +15 +16 998.1 989.1
11 19.08 В 2
{4}
30 км слаб. дождь 10/8 100 м
[Sc Ac As]
+14.7 +13.1 90 +14 +15 997.6 988.6
12 19.08 С 2
{5}
30 км слаб. дождь 10/9 50 м
[Frnb Ac As]
+14.5 +13.0 91 +14 +14 997.1 988.1
13 19.08 СЗ 2
{3}
25 км слаб. дождь 10/9 100 м
[Frnb Ac As]
+14.6 +13.2 91 +14 +14 996.8 987.8
14 19.08 СЗ 1
{2}
23 км слаб. дождь 10/9 100 м
[Frnb Ac As]
+15.0 +13.2 89 +15 +16 996.2 987.2
15 19.08 З 2
{3}
25 км слаб. дождь 10/9 100 м
[Frnb Ac As]
+14.6 +13.3 92 +14 +14 995.9 986.9
16 19.08 З 2
{4}
25 км слаб. дождь 10/9 100 м
[Sc Ac As]
+14.3 +13.2 93 +14 +14 995.4 986.4
17 19.08 З 3
{4}
25 км слаб. дождь 10/9 100 м
[Sc Ac As]
+14.0 +13.1 94 +13 +13 995.2 986.2
18 19.08 З 5
{7}
12 км дождь 10/9 100 м
[Frnb As op]
+13.0 +12.2 95 +11 +11 995.2 986.2 +12.8 +15.1
19 19.08 ЮЗ 2
{8}
14 км дождь {морось} 10/9 100 м
[Frnb As op]
+12.8 +12.2 96 +12 +12 995.4 986.3
20 19.08 ЮЗ 2
{4}
22 км слаб. дождь {морось} 10/9 300 м
[Sc Ac As]
+12.6 +11.9 95 +12 +12 995.8 986.8
21 19.08 ЮЗ 3
{5}
12 км слаб. дождь 10/9 300 м
[Sc As op]
+12.6 +11.9 95 +11 +11 996.5 987.4
22 19.08 ЮЗ 3
{6}
н/о н/о +12.4 +11.7 95 +11 +11 997.1 988.0
23 19.08 З 3
{5}
н/о н/о +12.4 +11.4 94 +11 +11 998.1 989.0
00 20.08 З 3
{8}
н/о н/о +11.9 +11.1 95 +10 +10 999.2 990.1
01 20.08 З 3
{7}
н/о н/о +11.7 +10.6 93 +10 +10 1000.1 991.0
02 20.08 З 2
{4}
н/о н/о +11.4 +10.4 94 +10 +10 1000.8 991.6
03 20.08 З 1
{3}
н/о н/о +11.2 +10.4 95 +11 +11 1001.4 992.2
04 20.08 ЮЗ 1
{3}
70 км {дождь} 10/9 50 м
[St Ac As]
+11.4 +10.6 95 +11 +11 1002.0 992.9
05 20.08 С 2
{5}
70 км 9/8 100 м
[St Ac As]
+11.2 +10.3 94 +10 +10 1002.6 993.4
06 20.08 С 2
{7}
70 км 9/8 100 м
[St Ac trans Cc]
+12.0 +10.2 89 +11 +11 1003.0 993.9 +11.1 +13.0
07 20.08 С 2
{3}
60 км 9/8 200 м
[St Ac trans Cc]
+12.8 +10.3 85 +12 +12 1003.7 994.5
08 20.08 С 1
{3}
60 км 9/8 200 м
[Sc Ac trans Cc]
+13.3 +10.6 84 +13 +14 1004.2 995.1
09 20.08 С 2
{3}
60 км 9/8 200 м
[Sc Ac trans Cc]
+13.9 +10.6 80 +13 +14 1004.7 995.6
10 20.08 ЮЗ 1
{3}
60 км 9/8 200 м
[Sc Ac trans Cc]
+14.3 +10.8 79 +15 +16 1005.1 996.0
11 20.08 Ю 1
{2}
65 км осадки на расстоянии 9/8 300 м
[Cu Sc Ac trans Cc]
+15.4 +10.1 71 +16 +17 1005.6 996.5
12 20.08 З 2
{4}
65 км слаб. ливневой дождь 9/8 300 м
[Cu Sc Ac cuf]
+13.9 +11.8 87 +13 +14 1006.1 997.0
13 20.08 С 2
{3}
65 км в посл. час ливневой дождь 9/8 300 м
[Cu Sc Ac cuf]
+14.5 +12.2 86 +14 +15 1006.6 997.5
14 20.08
{4}
65 км осадки на расстоянии 8/6 200 м
[Cu Sc Ac cuf Cs]
+14.4 +11.8 84 1006.9 997.8
15 20.08 С 1
{3}
70 км {ливн. осадки} 6/5 300 м
[Cu med, cong Ac cuf Ci sp]
+14.8 +11.3 80 +15 +17 1007.2 998.1
16 20.08 С 1
{3}
>70 км 6/5 600 м
[Cu med, cong Ac cuf Ci sp]
+15.2 +11.2 77 +16 +16 1007.7 998.6
17 20.08 З 3
{4}
>70 км 8/6 600 м
[Cu med, cong Ac cuf Ci fib]
+14.5 +11.4 82 +14 +14 1008.2 999.1
18 20.08 З 2
{4}
>70 км 8/6 600 м
[Cu Sc Ac As Ci fib]
+13.7 +11.3 85 +13 +13 1008.5 999.4 +12.0 +15.8
19 20.08 Ю 1
{3}
>70 км 6/5 600 м
[Cu Sc Ac As Ci fib]
+12.4 +10.8 90 +12 +12 1008.8 999.6
20 20.08 штиль 0
{2}
>70 км 9/8 600 м
[Cu Sc Ac As]
+11.1 +10.5 96 +10 +10 1009.3 1000.1
21 20.08 штиль 0
{2}
>70 км 9/8 1000 м
[Cu Sc Ac As]
+10.5 +10.2 98 +10 +10 1009.7 1000.4
22 20.08 штиль 0
{1}
н/о н/о +10.0 +9.6 97 +9 +9 1009.6 1000.3
23 20.08 ЮВ 1
{2}
н/о н/о +10.2 +9.9 98 +10 +10 1009.8 1000.5
00 21.08 Ю 1
{3}
н/о н/о +9.8 +9.4 97 +9 +9 1010.1 1000.8
01 21.08 Ю 1
{2}
н/о н/о +9.4 +9.0 97 +9 +9 1010.2 1000.9
02 21.08 ЮВ 1
{2}
н/о н/о +9.3 +9.0 98 +9 +9 1010.2 1000.9
03 21.08 Ю 1
{2}
н/о н/о +9.2 +8.8 97 +8 +8 1010.3 1000.9
04 21.08 ЮЗ 1
{2}
70 км 9/1 <50 м
[St Ac trans Ci fib]
+9.1 +8.8 98 +8 +8 1010.4 1001.0
05 21.08 штиль 0
{1}
70 км туман на расстоянии 9/1 <50 м
[St Ac lent Ci fib]
+9.9 +9.5 97 +9 +10 1010.3 1001.0
06 21.08 Ю 1
{2}
>70 км 6/1 50 м
[St Ac lent Cc]
+10.4 +9.7 95 +10 +11 1010.4 1001.1 +9.0 +13.7
07 21.08 З 1
{1}
>70 км 6/1 100 м
[Sc Ac lent Ci sp]
+11.2 +9.9 92 +11 +13 1010.5 1001.2
08 21.08 З 1
{2}
>70 км 6/1 1500 м
[Sc Ac lent Ci sp]
+13.7 +10.2 79 +14 +17 1010.5 1001.3
09 21.08 Ю 1
{2}
>70 км 6/5 1500 м
[Cu med, cong Ac lent Ci sp]
+14.6 +10.9 78 +15 +18 1010.3 1001.2
10 21.08 З 2
{5}
70 км слаб. ливневой дождь 8/6 1500 м
[Cu med, cong Ac lent Ci sp]
+17.4 +10.9 66 +18 +20 1010.4 1001.4
11 21.08 ЮЗ 2
{8}
70 км в посл. час ливневой дождь 9/8 1000 м
[Cu med, cong Ac lent Ci sp]
+16.1 +11.4 74 +16 +17 1010.4 1001.3 1
12 21.08 Ю 2
{8}
>70 км осадки на расстоянии {ливн. осадки} 5/4 1500 м
[Cu med, cong Ac lent Cs]
+18.4 +8.3 52 +19 +22 1010.3 1001.2 1
13 21.08 ЮЗ 3
{5}
>70 км слаб. ливневой дождь 8/6 1500 м
[Cu med, cong Ac lent Cs]
+17.2 +7.9 54 +17 +18 1010.5 1001.4
14 21.08 ЮЗ 3
{7}
70 км в посл. час ливневой дождь 9/6 1000 м
[Cu med, cong Ac cuf Cs]
+18.1 +7.6 50 +18 +19 1010.6 1001.6
15 21.08 ЮЗ 4
{7}
>70 км осадки на расстоянии {ливн. осадки} 9/5 1000 м
[Cu med, cong Ac cuf Cs]
+16.7 +7.0 53 +16 +17 1010.8 1001.7
16 21.08 ЮЗ 4
{7}
>70 км 9/9 1000 м
[Cu med, cong Ac cuf]
+16.4 +7.6 56 +16 +16 1011.1 1002.0
17 21.08 ЮЗ 5
{9}
60 км осадки на расстоянии 9/9 600 м
[Cu med, cong Ac cuf]
+15.0 +7.5 61 +14 +14 1011.9 1002.7
18 21.08 Ю 3
{10}
50 км слаб. ливневой дождь 9/9 600 м
[Cu med, cong Ac cuf]
+12.5 +9.2 80 +11 +11 1012.5 1003.3 +10.3 +19.1 1
19 21.08 Ю 4
{7}
65 км в посл. час ливневой дождь 9/9 600 м
[Cu Sc Ac cuf]
+12.4 +9.1 80 +10 +10 1012.7 1003.5
20 21.08 З 2
{5}
55 км осадки на расстоянии 9/9 600 м
[Cu Sc Ac As]
+12.6 +8.6 77 +12 +12 1013.5 1004.3
21 21.08 З 3
{7}
70 км осадки на расстоянии {ливн. осадки} 9/8 600 м
[Cu Sc Ac As]
+12.1 +7.5 73 +11 +11 1014.3 1005.1
22 21.08 З 1
{4}
н/о н/о +11.8 +7.5 75 +12 +12 1014.8 1005.6
23 21.08 З 3
{5}
н/о н/о +11.6 +7.4 75 +10 +10 1015.2 1005.9
00 22.08 З 2
{7}
н/о н/о +11.3 +7.5 77 +10 +10 1015.7 1006.4
01 22.08 З 3
{5}
н/о н/о +11.1 +7.6 79 +9 +9 1016.0 1006.7
02 22.08 З 5
{7}
н/о н/о +11.0 +7.1 77 +8 +8 1016.5 1007.1

 

Местоположение метеостанции Бардуфосс (Норвегия): широта 69.06 долгота 18.54 высота над уровнем моря 76 м.

В архиве по умолчанию представлена погода в Бардуфоссе за последнюю неделю. Архивные данные за месяц целиком и за предыдущие месяцы, начиная с января 2011 года, Вы можете получить, выбрав интересующий диапазон дат из раскрывающегося списка и нажав кнопку "Ввод!".


*Определитесь, кто Вы:
робот инопланетянин человек

Внимание! Время в таблицах - всемирное. Для получения местного времени необходимо прибавить поправку, которая равна 1 ч.

Смотрите также архив погоды в соседних городах и на ближайших метеорологических станциях:

Погода в Дивидалене (Норвегия) (56 км)
Погода на Маяке Hekkingen (Норвегия) (66 км)
Погода в Тромсё (Холт) (Норвегия) (67 км)
Погода в Тромсё (Норвегия) (67 км)
Погода в Тромсё аэропорту (Норвегия) (70 км)
Погода в Каттерьяк аэропорту (Швеция) (73 км)
Погода в Каттерьяке (Швеция) (73 км)
Погода в Шиботне (Норвегия) (77 км)
Погода в Страумснесе (Норвегия) (79 км)
Погода в Абиску (Швеция) (80 км)

Пояснения к столбцам:

Ветер - указаны скорость ветра в м/с - средняя за 10 мин, порывы в срок и между сроками (в фигурных скобках) и направление, откуда дует ветер: С - северный, СВ - северо-восточный, В - восточный, ЮВ - юго-восточный, Ю - южный, ЮЗ - юго-западный, З - западный, СЗ - северо-западный.
Видимость - горизонтальная дальность видимости в метрах или километрах. При видимости от 1 до 10 км при отсутствии осадков обычно наблюдается дымка, при ухудшении видимости до 1 км и менее - туман. В сухую погоду видимость может ухудшаться дымом, пылью или мглою.
Явления - указаны атмосферные явления, наблюдавшиеся в срок или в последний час перед сроком; фигурными скобками обозначены явления, наблюдавшиеся между сроками (за 1-3 часа до срока); квадратными скобками обозначены град или гололедные отложения с указанием их диаметра в мм.
Облачность - указаны через наклонную черту общая и нижняя облачность в баллах и высота нижней границы облаков в метрах; квадратными скобками обозначены формы облаков: Ci - перистые, Cs - перисто-слоистые, Cc - перисто-кучевые, Ac - высококучевые, As - высокослоистые, Sc - слоисто-кучевые, Ns - слоисто-дождевые, Cu - кучевые, Cb - кучево-дождевые. Подробнее классификацию облаков см. в Атласе облаков (PDF).
T - Температура воздуха - температура, измеренная на высоте 2 м над землей.
Td - Температура точки росы - температура, при понижении до которой содержащийся в воздухе водяной пар достигнет насыщения.
f - Относительная влажность воздуха - влажноcть воздуха, измеренная на высоте 2 м над землей.
Te - Эффективная температура - температура, которую ощущает одетый по сезону человек в тени. Характеристика душности погоды. При расчете учитывается влияние влажности воздуха и скорости ветра на теплоощущения человека.
Tes - Эффективная температура на солнце - температура, которую ощущает человек, с поправкой на солнечный нагрев. Характеристика знойности погоды. Зависит от высоты солнца над горизонтом, облачности и скорости ветра. Ночью, в пасмурную погоду, а также при ветре 12 м/с и более поправка равна нулю.
P - Атмосферное давление - приведенное к уровню моря атмосферное давление.
Po - Атмосферное давление - измеренное на уровне метеостанции атмосферное давление.
Tmin - Минимальная температура - минимум температуры воздуха на высоте 2 м над землей.
Tmax - Максимальная температура - максимум температуры воздуха на высоте 2 м над землей.
R - Количество осадков - Количество выпавших осадков за период времени, мм. При наведении курсора мыши на число - период времени, за который выпало указанное количество осадков.
R24 - Количество осадков - Количество выпавших осадков за 24 часа, мм.
S - Снежный покров - Высота снежного покрова, см. При наведении курсора мыши на число - состояние снежного покрова и степень покрытия местности в баллах.